DW6277 Weather Reports


Display with metric or nautical units.
time (UTC)temp
F
wind
direction
speed
MPH
gust
MPH
rain 1hr
in
rain 24hr
in
rain mn
in
humidity
%
barometer
mb
20260510233603 66 126 4.0 8.0 0.00 0.23 0.23 95 1031.7
20260510232619 65 201 2.0 8.0 0.00 0.23 0.23 96 1031.8
20260510230429 65 214 2.0 6.0 0.00 0.23 0.23 97 1031.7
20260510225427 65 218 1.0 5.0 0.00 0.23 0.23 97 1031.7
20260510224445 65 212 1.0 5.0 0.05 0.23 0.23 97 1031.5
20260510223434 64 193 1.0 6.0 0.00 0.22 0.22 97 1031.5
20260510221233 63 194 2.0 6.0 0.00 0.22 0.22 98 1031.4
20260510215127 63 243 2.0 8.0 0.00 0.22 0.22 97 1031.3
20260510214055 63 228 2.0 8.0 0.00 0.22 0.22 98 1031.2
20260510213030 62 214 3.0 8.0 0.00 0.22 0.22 98 1031.0
20260510212039 62 240 2.0 8.0 0.00 0.22 0.22 98 1030.9
20260510211047 62 209 2.0 12.0 0.00 0.22 0.22 97 1030.8
20260510210029 62 301 3.0 12.0 0.00 0.22 0.22 97 1030.6
20260510204957 62 237 4.0 9.0 0.00 0.22 0.22 97 1030.3
20260510203959 62 239 4.0 10.0 0.04 0.22 0.22 97 1030.2
20260510202939 62 224 4.0 10.0 0.11 0.20 0.21 97 1030.2
20260510201943 61 232 3.0 10.0 0.00 0.19 0.19 97 1030.2
20260510200921 61 226 4.0 9.0 0.00 0.19 0.19 97 1030.1
20260510195944 61 226 3.0 9.0 0.00 0.19 0.19 97 1029.9
20260510194955 62 244 4.0 9.0 0.03 0.19 0.19 97 1029.8
20260510193951 62 244 4.0 9.0 0.07 0.19 0.19 97 1029.7
20260510190735 63 231 3.0 9.0 0.30 0.14 0.15 97 1029.6
20260510185747 62 247 3.0 9.0 0.26 0.12 0.13 97 1029.5
20260510184742 62 253 3.0 11.0 0.00 0.11 0.11 97 1029.4
20260510183736 62 236 3.0 11.0 0.00 0.11 0.11 97 1029.5
20260510182718 62 202 2.0 8.0 0.00 0.11 0.11 97 1029.2
20260510180545 62 274 3.0 8.0 0.00 0.11 0.11 97 1029.2
20260510174406 62 219 3.0 8.0 0.00 0.11 0.11 96 1029.1
20260510172225 62 219 2.0 6.0 0.00 0.10 0.10 96 1029.2
20260510171221 62 189 2.0 6.0 0.00 0.09 0.09 96 1029.3
20260510165058 63 243 2.0 9.0 0.00 0.09 0.09 95 1029.2
20260510162919 64 246 4.0 14.0 0.03 0.08 0.09 96 1029.4
20260510161910 64 179 6.0 14.0 0.17 0.07 0.08 95 1029.3
20260510160913 65 159 5.0 12.0 0.04 0.06 0.06 95 1029.3
20260510155923 65 137 8.0 18.0 0.00 0.04 0.05 94 1029.4
20260510154900 66 183 8.0 18.0 0.00 0.04 0.04 94 1029.4
20260510153839 65 174 3.0 12.0 0.00 0.04 0.04 93 1029.4
20260510152809 65 179 4.0 12.0 0.00 0.04 0.04 92 1029.3
20260510150709 64 256 2.0 7.0 0.14 0.03 0.03 90 1029.3
20260510145701 65 200 3.0 7.0 0.00 0.02 0.02 89 1029.4
20260510144723 65 241 2.0 15.0 0.03 0.02 0.02 88 1029.4
20260510141431 68 195 2.0 11.0 0.00 0.00 0.00 83 1029.1
20260510140424 68 212 3.0 12.0 0.00 0.00 0.00 83 1029.1
20260510135441 69 120 6.0 15.0 0.00 0.00 0.00 83 1029.3
20260510134433 68 178 7.0 15.0 0.00 0.00 0.00 82 1029.3
20260510133420 69 185 6.0 13.0 0.00 0.00 0.00 83 1029.2
20260510132417 69 179 6.0 16.0 0.00 0.00 0.00 83 1029.3
20260510130313 69 174 6.0 13.0 0.00 0.00 0.00 83 1029.4
20260510125250 69 177 6.0 13.0 0.00 0.00 0.00 83 1029.5
20260510124225 69 179 7.0 13.0 0.00 0.00 0.00 82 1029.6
20260510123219 69 179 7.0 16.0 0.00 0.00 0.00 82 1029.6
20260510122232 69 181 7.0 16.0 0.00 0.00 0.00 82 1029.6
20260510121245 68 133 5.0 16.0 0.00 0.00 0.00 82 1029.6
20260510120308 68 212 3.0 10.0 0.00 0.00 0.00 82 1029.6
20260510115305 68 201 3.0 12.0 0.00 0.00 0.00 81 1029.7
20260510114242 68 233 4.0 13.0 0.00 0.00 0.00 80 1029.6
20260510113217 69 203 5.0 15.0 0.00 0.00 0.00 80 1029.6
20260510112151 69 180 7.0 13.0 0.00 0.00 0.00 79 1029.6
20260510110049 69 195 6.0 16.0 0.00 0.00 0.00 79 1029.6
20260510105023 69 161 6.0 14.0 0.00 0.00 0.00 79 1029.6
20260510102922 69 194 6.0 14.0 0.00 0.00 0.00 77 1029.6
20260510101904 69 180 6.0 14.0 0.00 0.00 0.00 78 1029.5
20260510100842 69 149 7.0 12.0 0.00 0.00 0.00 79 1029.4
20260510095830 69 183 7.0 16.0 0.00 0.00 0.00 80 1029.3
20260510094845 69 146 6.0 16.0 0.00 0.00 0.00 80 1029.2
20260510093824 69 170 6.0 15.0 0.00 0.00 0.00 81 1029.1
20260510092842 69 136 8.0 15.0 0.00 0.00 0.00 81 1029.1
20260510091811 69 170 8.0 14.0 0.00 0.00 0.00 81 1028.9
20260510085642 69 207 6.0 15.0 0.00 0.00 0.00 82 1028.7
20260510083526 69 137 8.0 15.0 0.00 0.00 0.00 82 1028.4
20260510082456 69 155 7.0 15.0 0.00 0.00 0.00 82 1028.2
20260510081511 69 126 6.0 12.0 0.00 0.00 0.00 82 1028.3
20260510080534 69 157 6.0 15.0 0.00 0.00 0.00 82 1028.1
20260510075518 69 199 6.0 15.0 0.00 0.00 0.00 83 1028.0
20260510074520 70 173 6.0 12.0 0.00 0.00 0.00 82 1028.0
20260510073508 69 193 6.0 13.0 0.00 0.00 0.00 82 1028.0
20260510072455 69 181 6.0 13.0 0.00 0.00 0.00 81 1027.9
20260510071447 69 179 5.0 11.0 0.00 0.00 0.00 81 1027.8
20260510065334 69 181 6.0 16.0 0.00 0.00 0.00 82 1027.6
20260510064348 69 187 5.0 10.0 0.00 0.00 0.00 82 1027.5
20260510063318 69 177 6.0 13.0 0.00 0.00 0.00 82 1027.4
20260510062255 69 180 6.0 13.0 0.00 0.00 0.00 81 1027.3
20260510061224 69 140 6.0 13.0 0.00 0.00 0.00 81 1027.2
20260510060214 70 188 7.0 14.0 0.00 0.00 0.00 80 1027.1
20260510055234 70 180 6.0 14.0 0.00 0.00 0.00 79 1027.0
20260510054225 70 160 7.0 13.0 0.00 0.00 0.00 79 1026.9
20260510053159 70 207 6.0 13.0 0.00 0.00 0.00 79 1026.9
20260510052133 70 179 6.0 13.0 0.00 0.00 0.00 78 1026.8
20260510051111 70 181 6.0 13.0 0.00 0.00 0.00 77 1026.8
20260510050117 71 139 6.0 12.0 0.00 0.00 0.00 76 1026.7
20260510043941 71 186 6.0 12.0 0.00 0.00 0.00 73 1026.6
20260510042959 71 181 6.0 12.0 0.00 0.00 0.00 73 1026.6
20260510042022 71 113 5.0 12.0 0.00 0.00 0.00 72 1026.5
20260510041046 71 193 5.0 10.0 0.00 0.00 0.00 72 1026.5
20260510040100 71 180 6.0 12.0 0.00 0.00 0.00 70 1026.6
20260510035107 72 180 5.0 14.0 0.00 0.00 0.00 72 1026.5
20260510034042 71 179 6.0 14.0 0.00 0.00 0.00 71 1026.5
20260510033026 71 193 6.0 10.0 0.00 0.00 0.00 71 1026.5
20260510032029 70 219 5.0 9.0 0.00 0.00 0.00 72 1026.7
20260510030956 70 187 5.0 10.0 0.00 0.00 0.00 71 1026.7
20260510025954 70 180 5.0 10.0 0.00 0.00 0.00 70 1026.8
20260510024944 70 146 5.0 11.0 0.00 0.00 0.00 70 1026.9
20260510023933 70 190 4.0 11.0 0.00 0.00 0.00 71 1027.0
20260510022915 70 177 5.0 10.0 0.00 0.00 0.00 71 1027.1
20260510021921 70 148 5.0 10.0 0.00 0.00 0.00 71 1027.2
20260510020911 71 152 5.0 10.0 0.00 0.00 0.00 68 1027.3
20260510015837 71 144 5.0 9.0 0.00 0.00 0.00 68 1027.4
20260510014834 71 134 5.0 9.0 0.00 0.00 0.00 69 1027.6
20260510013812 71 152 4.0 8.0 0.00 0.00 0.00 70 1027.6
20260510011708 71 165 5.0 10.0 0.00 0.00 0.00 68 1027.8
20260510010709 72 157 3.0 9.0 0.00 0.00 0.00 65 1027.9
20260510004449 71 175 4.0 8.0 0.00 0.00 0.00 69 1028.2
20260510003511 70 176 4.0 8.0 0.00 0.00 0.00 69 1028.2
20260510002447 70 168 3.0 8.0 0.00 0.00 0.00 65 1028.3
20260510001425 71 179 2.0 4.0 0.00 0.00 0.00 68 1028.2
20260510000443 72 181 0.0 2.0 0.00 0.00 0.00 71 1028.1
20260509235450 70 0 0.0 2.0 0.00 0.00 0.00 76 1028.0